User: anonymous   Login
Location: Caltech
(34.1382°N, 118.1253°W)
Time: 12:51:58
(UTC-07:00)
Language:

Cosmos 2219 Rocket - Orbit

View from above orbital plane
View from above orbital plane
View from above satellite
View from above satellite

Ground track
Ground track

The orbit data is extracted from the following two-line orbital elements,

1 22220U 92076B   16207.92946721 +.00000198 +00000-0 +12369-3 0  9990
2 22220 070.9999 025.9949 0011342 043.1787 119.0040 14.16399259224240
Epoch (UTC): 25 July 2016 22:18:25
Eccentricity: 0.0011342
inclination: 70.9999°
perigee height: 829 km
apogee height: 846 km
right ascension of ascending node: 25.9949°
argument of perigee: 43.1787°
revolutions per day: 14.16399259
mean anomaly at epoch: 119.0040°
orbit number at epoch: 22424

The dashed part of the orbit path shows where the satellite is in the earth's shadow,  

DLR